Location: Bay Ridge
(40.6340°N, 74.0146°W)
Time: 20:51:41
(UTC+00:00)

Cosmos 2297 Rocket - Pass Details

Date: 15 November 2019
Orbit: 839 x 843 km, 71.0° (Epoch: 10 December)

Event Time Altitude Azimuth Distance (km) Brightness Sun altitude
Rises 00:00:07 0° 325° (NW) 3,404 5.8 -26.8°
Reaches altitude 10° 00:02:53 10° 314° (NW) 2,466 5.1 -27.3°
Maximum altitude 00:07:34 28° 257° (WSW) 1,546 4.1 -28.2°
Drops below altitude 10° 00:12:15 10° 201° (SSW) 2,453 4.8 -29.1°
Sets 00:15:00 0° 190° (S) 3,384 5.4 -29.6°
